Content
SEND FEEDBACK

Daily
Averages
Monthly
Summary
Austria

KROTTENDORF, AUSTRIA


Home > Europe > Austria
Elevation: 1549 feet     Latitude: 46 39N     Longitude: 014 19E

WEATHER
 
SELECT A DAY
Number of Records: 317,408;   Date Range: 7/1/96 - 10/30/14
 
SHARE

PRINT THIS DATA

[ ← Previous Day ]
WEATHER ALMANAC - JANUARY 31, 2013
[ Next Day → ]
[ °C ]   °F
Weather ElementAverageHighLow
Temperature32.8 °F46.4 °F (2:20 pm)24.8 °F (8:20 am)
Dewpoint30.2 °F37.4 °F (2:20 pm)24.8 °F (8:20 am)
Humidity90.6 %100 % (12:50 am)70 % (4:00 pm)
Barometer30.04 in30.23 in (10:00 am)29.92 in (12:50 am)
Wind Speed4 mph9.2 mph (2:20 am)
Weather ElementAverage
Visibility5.8 mi
Wind DirectionSSW (195.9 °)

Weather ElementTotal
Precipitation---
Heating Degree Days29.4 (Base 65)
Averaged from 55 records on January 31, 2013
WEATHER CONDITIONS BREAKOUT
WIND DIRECTION BREAKOUT
WEATHER BY HOUR - JANUARY 31, 2013
[ °C ]   °F
Local TimeTemperatureDewpointHumidityBarometerVisibilityWind DirectionWind SpeedGust SpeedPrecipitationEventsConditions
12:50 AM26.6 °F26.6 °F100 %29.92 in3.1 miVariable3.5 mphPartly Cloudy
1:00 AM26.0 °F26.0 °F99 %30.03 in3.0 mi°4.5 mph
1:20 AM28.4 °F28.4 °F100 %30.01 in5.0 miSouth (180°)6.9 mphMostly Cloudy
1:50 AM30.2 °F30.2 °F100 %30.01 in5.0 miNNW (330°)5.8 mphLight Freezing Drizzle
2:20 AM30.2 °F30.2 °F100 %30.04 in6.2 miNW (320°)9.2 mphRainLight Freezing Rain
2:50 AM32.0 °F30.2 °F93 %30.06 in6.2 miWest (280°)6.9 mphMostly Cloudy
3:20 AM30.2 °F30.2 °F100 %30.04 in6.2 miWNW (300°)5.8 mphPartly Cloudy
3:50 AM30.2 °F30.2 °F100 %30.04 in5.0 miSSW (200°)3.5 mphScattered Clouds
4:00 AM31.0 °F30.0 °F94 %30.12 in5.0 miSSW (200°)4.5 mphScattered Clouds
4:20 AM28.4 °F26.6 °F93 %30.04 in3.7 miNW (320°)4.6 mphPartly Cloudy
4:50 AM28.4 °F28.4 °F100 %30.06 in3.7 miNW (310°)4.6 mphPartly Cloudy
5:20 AM26.6 °F26.6 °F100 %30.06 in3.7 miWNW (300°)4.6 mphPartly Cloudy
5:50 AM26.6 °F26.6 °F100 %30.09 in3.7 miWNW (300°)4.6 mphPartly Cloudy
6:20 AM26.6 °F26.6 °F100 %30.09 in3.7 miWNW (300°)5.8 mphPartly Cloudy
6:50 AM26.6 °F26.6 °F100 %30.09 in6.2 miNW (320°)5.8 mphPartly Cloudy
7:00 AM27.0 °F26.0 °F96 %30.19 in6.0 miNW (320°)6.7 mphPartly Cloudy
7:20 AM26.6 °F26.6 °F100 %30.09 in3.7 miWNW (300°)6.9 mphPartly Cloudy
7:50 AM26.6 °F26.6 °F100 %30.12 in3.1 miWNW (300°)3.5 mphPartly Cloudy
8:20 AM24.8 °F24.8 °F100 %30.12 in3.1 miVariable2.3 mphFogPartly Cloudy
8:50 AM26.6 °F26.6 °F100 %30.12 in3.1 miNW (310°)3.5 mphFogPartly Cloudy
9:20 AM28.4 °F28.4 °F100 %30.12 in3.7 miWSW (250°)4.6 mphFogShallow Fog
9:50 AM32.0 °F30.2 °F93 %30.15 in6.2 miVariable4.6 mphPartly Cloudy
10:00 AM33.0 °F30.0 °F86 %30.23 in19.0 mi°4.5 mphScattered Clouds
10:20 AM35.6 °F32.0 °F87 %30.15 in6.2 miSW (220°)3.5 mphPartly Cloudy
10:50 AM35.6 °F32.0 °F87 %30.15 inNW (320°)4.6 mphClear
11:20 AM39.2 °F33.8 °F81 %30.15 inNorth (350°)3.5 mphClear
11:50 AM42.8 °F35.6 °F76 %30.15 inVariable1.2 mphClear
12:20 PM44.6 °F35.6 °F71 %30.12 inNorth (350°)2.3 mphClear
12:50 PM39.2 °F33.8 °F81 %30.09 inVariable1.2 mphClear
1:00 PM40.0 °F34.0 °F72 %30.15 in31.0 mi°2.2 mphScattered Clouds
1:20 PM41.0 °F35.6 °F81 %30.09 inEast (90°)3.5 mphClear
1:50 PM42.8 °F35.6 °F76 %30.06 inVariable1.2 mphClear
2:20 PM46.4 °F37.4 °F71 %30.04 inNE (50°)2.3 mphClear
2:50 PM42.8 °F35.6 °F76 %30.04 inEast (90°)3.5 mphClear
3:20 PM41.0 °F35.6 °F81 %30.01 inSE (140°)3.5 mphClear
3:50 PM42.8 °F35.6 °F76 %30.01 inVariable2.3 mphClear
4:00 PM42.0 °F35.0 °F70 %30.05 in19.0 mi°2.2 mphScattered Clouds
4:20 PM41.0 °F35.6 °F81 %30.01 inSSE (160°)3.5 mphClear
4:50 PM41.0 °F35.6 °F81 %29.98 inNE (50°)3.5 mphClear
5:20 PM37.4 °F33.8 °F87 %29.98 inWNW (290°)2.3 mphClear
5:50 PM35.6 °F32.0 °F87 %29.95 inNW (320°)3.5 mphClear
6:20 PM35.6 °F33.8 °F93 %29.95 inWNW (300°)4.6 mphClear
6:50 PM33.8 °F32.0 °F93 %29.92 inWest (280°)3.5 mphClear
7:00 PM33.0 °F31.0 °F92 %30.01 in9.0 miWest (280°)4.5 mphScattered Clouds
7:20 PM32.0 °F30.2 °F93 %29.92 inNW (310°)5.8 mphClear
7:50 PM32.0 °F30.2 °F93 %29.92 inWNW (300°)4.6 mphClear
8:20 PM30.2 °F28.4 °F93 %29.95 inVariable1.2 mphClear
8:50 PM28.4 °F28.4 °F100 %29.92 in3.1 miVariable2.3 mphFogFog
9:20 PM30.2 °F28.4 °F93 %29.92 in3.1 miNW (310°)6.9 mphFogFog
9:50 PM26.6 °F24.8 °F93 %29.95 in3.1 miSouth (170°)3.5 mphPartly Cloudy
10:00 PM27.0 °F25.0 °F90 %30.04 in1.0 miSouth (170°)4.5 mphFogPatches of Fog
10:20 PM28.4 °F26.6 °F93 %29.95 in3.1 miVariable2.3 mphFogPatches of Fog
10:50 PM28.4 °F26.6 °F93 %29.95 in3.1 miWNW (300°)5.8 mphScattered Clouds
11:20 PM28.4 °F26.6 °F93 %29.95 in3.1 miVariable2.3 mphScattered Clouds
11:50 PM26.6 °F24.8 °F93 %29.92 in1.8 miVariable2.3 mphPartly Cloudy
Hourly data recorded from LOWK, located miles away from Krottendorf, Austria







STORIES FROM OUR PARTNERS